Home > Weather > Vladivostok > Past weeks

Flag for Russia Weather for the Past 2 Weeks in Vladivostok, Russia

Now
-4 °F

Haze.


Feels Like: -4 °F
Forecast: 2 / 24 °F
Wind: 1 mph from North

Location: Vladivostok Airport

Current Time: Feb 10, 2016 at 2:44:05 AM

Latest Report: Feb 10, 2016 at 2:00 AM


Visibility: 2 mi

Pressure: 30.18 "Hg

Humidity: 77%

Dew point: -9 °F

Location of VladivostokLocation

Historic Weather in Vladivostok — Graph

°F

Vladivostok Temperature Yesterday

Maximum temperature yesterday: 21 °F (at 3:30 PM)
Minimum temperature yesterday: -2 °F (at 11:00 PM)
Average temperature yesterday: 12 °F

High & Low Weather Summary for the Past Weeks

 TemperatureHumidityPressure
High32 °F (Feb 7, 4:00 PM)93% (Feb 8, 6:00 PM)30.66 "Hg (Feb 8, 6:00 PM)
Low-24 °F (Jan 31, 6:30 AM)22% (Jan 26, 4:30 PM)29.77 "Hg (Feb 8, 5:30 PM)
Average5 °F55%30.22 "Hg
* Reported Jan 26 1:00 AM — Feb 10 1:30 AM, Vladivostok, Weather by CustomWeather, © 2016

Note: Actual official high and low records may vary slightly from our data, if they occured in-between our weather recording intervals... More about our weather records

Advertising

Vladivostok Weather History for the Previous 24 Hours

 ConditionsComfort  
Time TempWeatherWind HumidityBarometerVisibility
1:30 AM
Wed, Feb 10
-8 °FHaze.No wind77%30.18 "Hg2 mi
1:00 AM-4 °FHaze.1 mph77%30.15 "Hg2 mi
12:30 AM0 °FSleet. Haze.3 mph84%30.15 "Hg3 mi
12:00 AM-2 °FHaze.6 mph77%30.15 "Hg2 mi
11:30 PM
Tue, Feb 9
-2 °FClear.6 mph84%30.15 "Hg2 mi
11:00 PM-2 °FClear.3 mph77%30.12 "Hg2 mi
10:30 PM0 °FClear.3 mph78%30.12 "Hg4 mi
10:00 PM0 °FClear.6 mph78%30.12 "Hg4 mi
9:30 PM7 °FClear.3 mph72%30.12 "Hg4 mi
8:30 PM14 °FClear.1 mph62%30.09 "HgN/A
8:00 PM16 °FClear.3 mph53%30.09 "HgN/A
7:30 PM16 °FClear.3 mph57%30.07 "HgN/A
7:00 PM16 °FClear.3 mph57%30.07 "HgN/A
6:00 PM19 °FClear.6 mph49%30.04 "Hg6 mi
5:30 PM21 °FClear.8 mph45%30.04 "Hg6 mi
5:00 PM21 °FClear.8 mph49%30.01 "Hg5 mi
4:30 PM21 °FClear.10 mph49%30.01 "Hg4 mi
4:00 PM21 °FHaze.10 mph45%30.01 "Hg3 mi
3:30 PM21 °FHaze.13 mph49%29.98 "Hg3 mi
3:00 PM19 °FHaze.10 mph53%29.98 "Hg3 mi
2:30 PM19 °FLow level haze.8 mph53%29.98 "Hg3 mi
1:30 PM18 °FLow level haze.13 mph58%29.98 "Hg3 mi
1:00 PM18 °FLow level haze.13 mph58%29.98 "Hg4 mi
12:30 PM16 °FClear.10 mph62%29.98 "Hg4 mi
12:00 PM14 °FClear.6 mph67%30.01 "HgN/A
11:30 AM12 °FClear.6 mph67%29.98 "HgN/A
11:00 AM10 °FClear.6 mph72%29.98 "HgN/A
10:30 AM9 °FClear.6 mph72%29.98 "HgN/A
10:00 AM10 °FScattered clouds.6 mph72%29.98 "HgN/A
9:30 AM9 °FScattered clouds.6 mph72%29.95 "HgN/A
9:00 AM7 °FSnow flurries. Passing clouds.3 mph78%29.95 "HgN/A
8:30 AM9 °FSnow flurries. Passing clouds.3 mph78%29.92 "HgN/A
8:00 AM9 °FSnow flurries. Passing clouds.6 mph78%29.92 "HgN/A
7:30 AM9 °FSnow flurries. Passing clouds.6 mph78%29.89 "HgN/A
7:00 AM9 °FSnow flurries. Passing clouds.6 mph78%29.89 "HgN/A
6:30 AM9 °FSnow flurries. Passing clouds.6 mph78%29.86 "HgN/A
6:00 AM9 °FPassing clouds.6 mph78%29.86 "HgN/A
5:30 AM9 °FPassing clouds.6 mph85%29.86 "HgN/A
5:00 AM9 °FPassing clouds.3 mph85%29.86 "HgN/A
4:30 AM10 °FPassing clouds.3 mph85%29.83 "HgN/A
4:00 AM12 °FPassing clouds.6 mph85%29.83 "HgN/A
3:30 AM12 °FPassing clouds.8 mph85%29.83 "HgN/A
3:00 AM12 °FPassing clouds.6 mph85%29.83 "HgN/A
2:30 AM12 °FPassing clouds.6 mph85%29.80 "HgN/A
2:00 AM12 °FPassing clouds.6 mph85%29.80 "HgN/A
Weather by CustomWeather, © 2016

See weather overviewHow to use our weather pages